Wind_Speed
26 26 25 26 28 29 29 29 30 31 31 31 30 30 31 31 30 30 31 31 32 31 31 31 31 30 30 29 29 28 27 27 26 25 24 23 21 20 19 18 16 15 14 12 10 9 7 6 4 3 3 3 4 5 5 4 3 3 3 3 4 4 4 4 4 5 5 5 6
26 25 25 26 28 29 29 29 29 30 31 31 30 30 30 30 30 30 30 31 31 31 31 31 30 30 30 30 29 29 28 28 27 26 25 23 22 21 19 18 17 15 13 12 10 9 7 6 4 4 3 3 4 5 5 4 3 2 3 3 4 4 4 4 5 5 5 6 7
25 25 25 26 26 27 28 28 28 29 29 29 29 29 29 29 29 29 30 30 30 30 30 30 30 30 30 30 29 29 28 28 27 27 25 24 23 21 20 18 17 15 13 12 10 8 7 5 4 3 3 3 4 5 5 3 2 2 3 4 4 4 5 5 5 6 6 6 7
26 25 26 26 27 28 28 28 28 29 29 28 28 28 28 28 28 29 29 29 29 29 30 30 29 29 29 30 29 29 29 28 28 27 26 25 23 22 20 18 17 15 14 12 10 8 7 5 4 4 3 4 4 5 5 4 3 3 3 4 4 5 5 6 6 6 6 7 7
25 25 26 26 27 28 28 28 28 28 28 27 27 27 27 27 27 28 28 28 28 29 29 29 29 29 29 29 29 29 29 28 28 28 27 25 24 22 20 19 17 16 14 12 10 9 7 6 5 4 4 4 5 5 5 4 4 4 4 4 5 5 5 6 6 6 6 7 8
25 26 26 26 27 27 27 27 28 28 27 27 27 27 27 27 27 27 28 28 28 29 28 28 28 28 28 29 29 30 29 29 29 28 27 26 24 22 21 19 18 16 14 12 11 9 8 6 5 5 5 5 5 6 6 6 6 6 6 6 5 5 5 5 5 6 6 7 8
25 25 26 26 27 26 26 26 27 27 27 27 27 28 28 28 28 28 28 28 28 28 28 28 28 28 29 29 30 30 30 30 29 29 28 26 24 22 21 20 18 16 14 13 11 10 9 7 6 6 6 5 6 6 7 7 7 7 7 6 6 5 5 5 6 6 7 8 9
25 25 25 26 26 26 26 26 27 27 26 26 27 28 29 29 28 28 28 28 28 28 28 28 28 29 29 30 31 31 31 30 30 29 28 26 24 23 22 20 18 17 15 13 12 11 9 8 7 6 6 6 6 7 8 8 7 7 7 6 6 5 5 6 6 7 8 9 10
23 24 24 25 25 26 26 26 27 27 27 27 27 28 28 29 29 29 29 28 28 28 28 28 29 29 29 30 31 32 31 31 30 29 28 26 25 23 22 21 19 17 16 14 13 12 10 8 7 6 6 6 6 7 8 7 7 7 6 6 6 6 6 6 7 8 9 10 10
23 23 23 24 25 25 25 26 27 27 27 27 27 28 28 29 29 29 29 29 28 28 29 29 29 29 29 30 31 32 32 31 30 29 28 27 25 24 23 21 19 18 16 15 14 12 10 8 7 7 7 7 7 8 8 7 7 7 6 6 5 5 6 7 7 9 10 10 11
23 23 23 24 24 25 25 26 26 27 27 27 27 28 28 28 29 29 29 29 28 28 29 29 29 30 30 30 31 31 31 31 30 29 28 27 26 24 23 21 19 18 17 16 15 13 11 9 8 8 8 8 8 8 8 7 6 6 6 6 5 6 6 7 8 9 10 11 12
22 22 23 24 24 25 26 26 27 27 27 27 27 28 28 28 29 29 29 28 28 28 28 28 29 30 30 30 31 31 31 31 30 30 29 27 26 24 22 21 19 18 17 16 14 12 10 8 8 8 9 9 9 8 8 7 6 6 6 6 6 6 7 7 8 9 10 11 12
22 22 23 24 25 26 26 27 27 27 27 27 28 28 28 28 29 29 28 27 27 27 27 28 29 30 30 31 31 32 32 31 31 30 29 27 26 24 22 20 19 17 16 15 13 11 9 8 8 9 10 10 9 8 7 7 7 7 6 6 7 7 8 8 9 10 10 11 12
21 22 23 24 25 26 26 27 27 27 27 27 28 28 28 28 28 28 27 26 26 27 28 29 29 30 31 31 32 32 32 32 31 30 29 27 26 24 22 20 19 17 16 15 12 10 9 8 9 10 10 10 9 8 7 7 7 7 7 7 7 8 9 9 10 11 11 12 13
21 22 23 24 25 25 26 27 27 27 27 27 27 28 28 28 28 27 27 27 27 28 29 30 30 31 31 31 32 32 32 32 31 30 29 27 26 24 22 20 18 17 15 14 12 10 9 9 10 10 10 10 8 7 7 7 7 7 7 8 8 9 10 10 11 11 12 12 13
22 22 23 24 24 25 25 26 26 26 26 26 27 27 27 27 27 27 27 27 28 28 29 30 31 31 31 31 32 32 32 32 32 31 29 28 26 24 21 20 18 16 14 13 11 10 9 10 10 10 10 9 8 7 7 8 8 8 8 8 9 10 10 11 11 12 12 13 14
22 23 23 24 24 25 25 25 25 25 25 25 25 26 26 26 27 27 27 28 28 28 29 29 30 30 30 31 31 31 31 31 30 29 28 26 25 23 21 19 17 15 13 11 10 10 10 11 11 10 9 8 7 7 8 8 8 8 9 9 10 10 11 11 12 12 13 13 14
23 24 24 25 25 25 26 26 25 25 24 24 24 25 25 25 26 26 26 27 28 28 28 28 29 29 29 29 28 28 28 28 27 26 25 23 22 20 19 17 15 13 11 10 10 10 10 11 11 10 9 8 7 8 8 8 8 9 9 10 10 11 11 11 12 12 13 14 15
25 25 26 26 27 27 27 26 26 25 25 25 24 24 24 25 25 25 25 26 26 27 27 27 26 26 26 26 25 24 24 24 23 22 21 20 19 18 16 15 13 12 11 10 10 10 10 10 10 9 8 8 8 8 8 8 9 9 10 10 11 11 11 12 12 12 13 14 14
26 26 26 27 26 26 26 25 25 24 24 25 25 25 25 25 25 25 24 24 24 25 25 25 24 23 23 23 22 21 21 21 21 20 19 18 17 16 15 13 12 12 11 10 10 10 10 10 9 9 8 8 8 9 9 9 9 10 10 10 11 11 12 12 12 13 13 14 14
23 24 24 24 24 24 23 23 23 23 23 24 24 25 25 25 24 24 24 24 24 24 25 24 23 22 21 21 20 20 20 20 20 19 19 18 17 16 14 13 12 12 11 11 11 10 10 10 9 9 8 8 9 9 9 9 10 10 10 11 11 12 12 13 13 14 14 15 15
20 21 21 22 22 22 22 21 22 22 22 23 24 24 24 24 24 24 25 25 25 25 25 25 24 23 22 22 22 23 22 22 21 20 19 18 17 16 14 13 12 12 12 11 11 11 10 10 9 9 9 9 9 9 9 10 10 10 11 11 12 12 13 14 14 15 15 16 16
19 19 20 21 21 21 22 22 22 22 23 23 24 24 24 24 24 25 25 26 26 26 26 26 25 24 24 24 25 25 25 24 23 21 20 19 17 15 14 13 12 12 12 11 11 10 10 10 10 9 9 9 9 9 10 10 11 11 12 13 13 14 14 15 16 16 17 17 18
19 20 20 21 22 22 23 23 23 24 24 24 25 25 25 25 25 25 25 26 26 26 26 26 26 26 26 27 27 27 26 25 24 22 21 19 17 15 14 13 13 12 12 11 10 10 10 10 10 10 10 10 10 10 10 11 12 12 13 14 15 15 16 17 17 18 18 18 18
19 20 21 21 22 23 23 24 24 24 25 25 25 25 25 25 25 25 25 25 25 25 26 26 27 27 28 28 28 27 26 25 23 22 20 18 17 15 14 14 13 12 11 11 10 10 10 10 10 10 10 10 10 10 11 12 13 13 14 15 16 17 18 18 19 19 19 19 18
19 20 21 22 23 23 24 24 24 24 24 24 25 25 25 25 25 25 25 26 26 26 27 27 28 28 28 28 27 26 25 23 22 20 19 18 17 16 15 14 13 12 11 11 11 11 10 10 10 10 10 10 11 12 12 13 14 14 15 16 17 18 19 20 20 20 20 19 19
19 20 21 22 22 23 23 24 24 24 24 24 25 25 25 25 25 26 26 27 27 27 27 27 28 28 28 27 26 25 24 22 20 19 18 17 17 16 15 14 13 12 11 11 10 10 10 10 10 10 10 11 12 12 13 14 15 15 16 17 18 19 20 21 21 21 21 20 20
19 20 21 21 22 22 23 23 23 23 24 24 25 25 25 26 26 26 27 27 27 27 28 28 28 28 27 26 25 24 23 22 20 19 18 17 16 16 15 14 13 12 11 10 10 10 9 9 10 10 11 12 13 13 14 15 16 16 17 18 19 20 21 21 22 22 22 22 21
19 20 20 21 21 22 22 22 23 23 24 24 25 25 26 26 27 27 28 28 28 28 28 28 28 27 27 26 25 23 22 21 20 19 18 17 16 15 15 14 13 12 11 10 10 9 9 9 10 11 12 13 14 14 15 16 17 18 19 20 20 21 22 22 22 22 22 22 22
19 19 20 21 21 21 21 21 22 23 23 24 24 25 26 27 27 28 28 29 29 29 29 29 28 27 26 26 24 23 22 21 20 19 18 18 17 16 15 14 14 13 12 10 10 9 9 9 10 11 13 14 15 16 17 17 18 19 20 21 22 22 23 23 23 23 23 23 23
18 19 19 20 20 20 20 21 21 22 23 23 24 25 26 27 27 28 29 29 29 29 29 28 28 27 26 25 24 23 23 22 21 20 19 18 17 16 15 14 13 12 11 10 9 9 9 10 11 12 13 15 16 17 18 19 20 20 21 22 23 24 24 24 24 24 24 24 24
17 18 19 19 19 19 19 20 20 21 22 23 24 25 26 27 27 28 28 29 29 28 28 27 27 27 26 25 24 23 23 22 21 20 19 18 16 15 14 13 13 11 10 9 9 9 10 11 12 13 14 15 17 18 20 20 21 22 23 24 25 25 25 26 25 25 25 25 25
17 17 18 18 18 18 18 19 20 20 22 23 24 25 26 26 27 27 27 27 28 28 28 28 27 26 26 25 25 24 23 22 21 19 18 16 15 14 13 13 12 11 10 9 9 10 11 12 13 14 14 15 17 19 20 21 22 23 24 25 26 26 27 27 26 26 26 26 26
16 16 17 17 18 18 18 18 19 20 21 22 23 24 25 25 26 26 26 26 27 27 27 27 27 26 26 25 24 24 23 21 20 18 17 15 14 13 13 13 12 10 10 10 11 11 12 13 13 14 14 15 17 18 20 21 23 24 25 26 27 27 28 27 27 27 27 27 27
15 16 16 17 17 17 17 18 19 20 21 22 23 23 24 25 25 25 26 26 26 26 26 26 25 25 24 23 22 22 21 21 19 18 16 15 14 13 13 12 11 10 10 11 11 12 12 13 13 13 14 15 17 18 20 21 23 24 25 27 27 28 28 28 28 28 28 27 28
15 15 16 16 16 17 17 18 19 20 20 21 22 23 23 24 24 25 25 25 24 24 24 24 24 23 23 22 21 21 20 20 19 17 16 14 14 13 13 12 11 11 11 11 11 12 12 12 13 13 14 15 17 19 20 21 23 24 25 27 28 29 29 29 29 29 28 28 28
15 15 15 16 16 17 17 18 19 20 20 21 22 22 23 23 23 23 23 23 23 23 23 23 23 23 22 22 21 21 20 19 17 16 15 15 14 13 13 12 11 11 11 11 11 11 12 12 13 14 15 16 18 19 20 22 23 24 25 27 28 29 29 29 29 29 28 28 28
15 15 15 15 16 17 17 18 19 20 20 20 21 22 22 23 23 22 22 22 23 23 23 23 23 23 22 22 21 20 19 18 17 16 15 14 14 13 12 12 12 11 11 11 11 11 12 12 13 14 15 17 19 20 21 22 23 25 26 27 28 28 28 28 28 27 27 27 27
15 15 15 15 16 16 17 18 19 20 20 20 20 21 22 22 22 22 21 22 22 22 22 22 22 22 21 20 20 19 18 17 16 16 15 14 13 13 12 12 12 12 11 11 12 12 13 14 14 15 16 18 19 20 21 22 24 25 26 27 27 27 27 27 26 26 26 27 26
15 14 14 15 15 16 17 18 19 19 19 20 20 21 21 22 21 21 21 21 21 21 21 21 21 20 20 19 19 18 18 17 16 16 15 14 13 13 13 13 13 13 12 12 13 13 14 15 16 16 17 18 20 21 22 23 24 25 26 26 26 26 26 26 25 25 25 26 26
14 14 14 14 15 16 17 18 18 18 19 19 20 20 21 21 20 20 20 20 20 19 19 19 19 18 18 18 18 18 18 17 17 16 15 14 14 14 14 14 14 14 14 14 14 15 16 17 17 18 18 19 20 21 22 23 24 25 26 27 26 26 25 25 25 25 25 25 25
Wind_Direction
190 191 191 188 185 184 183 184 185 185 184 184 184 184 185 186 186 188 190 193 194 196 197 199 199 199 198 198 199 200 200 201 202 203 204 205 205 205 204 203 201 199 195 193 194 194 191 188 185 183 179 178 179 185 188 191 195 202 204 203 206 212 221 229 234 238 239 240 246
191 192 191 188 186 185 184 184 184 185 185 186 186 186 187 187 187 189 191 193 196 197 198 199 199 199 198 199 200 201 201 201 202 202 204 205 206 205 204 203 201 198 195 193 193 193 192 190 189 186 181 183 181 182 184 186 189 192 195 195 202 213 223 230 236 241 242 241 242
192 192 190 186 184 184 183 183 184 184 185 185 187 187 187 188 189 190 192 194 196 198 198 197 199 199 199 199 200 200 201 201 201 202 203 205 205 205 204 202 200 197 194 192 193 193 193 193 193 194 189 183 176 176 179 185 193 195 192 194 203 214 224 232 239 243 245 246 246
192 190 187 184 183 183 183 183 183 183 183 184 185 185 186 187 189 191 192 194 195 196 197 198 198 199 200 199 199 199 200 201 202 202 204 205 205 204 202 201 198 195 193 192 192 192 193 195 197 199 193 183 174 172 177 188 203 203 199 202 210 218 226 236 243 247 250 252 254
192 188 185 183 183 184 184 184 183 182 182 182 183 183 185 186 188 190 191 191 193 195 198 199 199 199 199 200 199 198 199 200 201 203 204 205 204 203 201 199 197 195 192 191 190 191 192 195 197 196 190 182 174 174 181 197 205 207 210 215 219 225 234 242 247 252 256 258 261
188 185 183 183 183 183 183 183 182 182 182 182 182 183 184 185 187 189 190 191 193 196 198 199 200 200 199 199 198 198 198 199 201 203 204 204 203 201 199 198 196 195 192 190 190 191 193 196 194 191 188 183 179 182 191 199 204 208 213 218 225 232 241 247 253 258 261 263 265
184 181 179 180 181 181 181 182 182 182 182 183 184 184 185 186 188 190 191 193 194 195 196 198 199 200 199 198 197 197 197 198 200 203 204 204 202 200 198 196 195 194 192 190 189 191 194 195 191 187 187 187 186 190 195 200 204 208 213 217 226 234 243 250 257 262 263 265 267
179 178 178 179 180 181 182 182 182 182 183 185 186 187 187 188 189 191 192 194 194 195 196 198 199 200 200 198 197 196 197 197 199 201 203 203 202 200 197 196 194 193 191 191 191 192 193 192 189 188 191 194 193 195 197 200 204 208 212 217 224 231 240 249 256 261 264 267 270
174 175 177 179 180 182 183 184 184 185 185 186 187 188 189 190 191 192 193 194 196 197 198 198 199 200 200 199 198 197 197 197 198 200 202 203 201 199 197 195 194 191 191 191 192 192 190 188 187 192 198 200 198 197 198 200 203 208 213 218 223 230 236 243 251 257 262 266 270
172 174 176 178 181 183 185 186 187 187 187 187 188 189 191 192 193 194 195 196 197 197 197 198 198 198 198 198 198 197 197 198 199 201 202 202 201 199 197 195 193 191 190 191 191 191 189 187 189 194 199 201 198 196 197 199 204 209 215 222 229 235 238 242 247 252 257 262 266
174 176 178 180 182 185 186 186 186 187 188 188 188 190 191 192 194 195 196 197 196 196 197 199 199 198 198 199 199 199 199 199 200 201 202 202 201 200 198 196 194 192 191 190 190 188 188 188 192 195 198 197 195 195 196 200 206 213 220 227 235 242 247 249 250 252 255 259 263
177 179 181 183 184 185 185 185 185 186 187 188 189 190 191 192 194 195 196 196 196 197 199 201 202 201 201 201 200 200 200 201 201 201 202 201 200 199 198 197 196 194 193 191 189 188 188 190 194 197 197 196 194 194 197 203 210 217 225 233 241 249 256 259 260 259 260 262 264
180 182 183 184 185 186 185 185 185 186 187 188 189 191 191 193 195 196 197 198 200 201 203 204 205 205 204 203 202 201 201 201 201 201 201 201 199 198 197 197 196 195 193 191 190 189 189 192 196 198 197 196 194 195 199 206 214 221 229 238 246 254 260 264 265 265 265 265 266
184 185 185 185 185 185 185 184 185 186 187 189 190 192 193 194 196 199 201 203 204 205 205 205 206 206 206 204 203 201 201 201 201 201 201 200 199 197 196 195 195 194 192 191 191 191 192 194 196 197 197 197 196 198 204 212 219 227 234 243 250 257 262 265 266 266 266 265 266
186 187 187 186 185 185 185 185 185 187 188 190 192 194 194 195 198 201 203 205 206 207 206 204 202 203 204 204 203 202 201 201 201 200 199 198 197 196 194 194 193 193 192 192 192 193 195 195 195 196 197 198 199 203 210 216 224 231 239 246 254 259 264 266 267 268 267 267 266
188 188 187 186 185 185 185 186 187 188 189 191 193 195 195 196 198 200 202 203 204 204 203 201 199 198 199 200 201 201 200 199 199 197 196 194 193 193 192 193 193 193 193 193 193 194 195 195 195 197 198 200 203 208 214 219 226 234 241 248 255 260 264 267 269 270 270 270 269
189 189 189 188 187 187 187 188 189 190 191 192 193 194 195 195 197 198 199 200 200 199 198 197 196 195 194 195 196 196 194 193 192 191 190 190 190 190 191 192 193 193 194 195 196 196 195 195 196 198 200 203 207 211 216 222 228 236 242 250 255 260 264 268 271 272 273 273 272
191 192 193 192 192 192 192 192 192 192 192 192 193 194 195 195 194 195 196 197 197 195 193 192 192 191 189 188 188 188 187 185 184 185 186 188 189 190 191 193 193 193 195 198 199 199 197 196 197 199 202 206 210 214 218 224 230 237 244 250 255 260 264 269 272 274 274 275 275
193 195 196 196 196 195 195 194 194 193 193 194 194 194 194 194 193 192 192 193 193 191 188 185 184 184 182 180 179 179 180 181 182 184 187 189 191 193 194 194 193 193 195 198 199 200 200 200 202 204 207 210 213 216 221 226 232 238 244 249 254 259 264 269 272 275 276 277 278
194 195 196 196 196 195 195 194 194 194 194 194 194 193 193 193 192 190 188 187 187 186 184 181 178 176 176 176 176 178 181 186 188 190 192 193 194 195 196 194 192 192 195 197 198 199 202 204 207 211 214 217 219 222 226 230 235 241 246 252 258 263 268 272 275 277 278 279 280
193 194 195 194 193 192 192 192 193 193 193 193 192 192 191 191 191 191 190 190 189 189 187 186 183 182 181 183 185 187 190 193 194 195 196 197 197 197 197 195 193 192 194 196 198 200 204 208 212 217 220 224 227 230 234 238 243 248 254 260 266 271 275 278 280 280 281 281 281
191 192 192 191 191 191 191 192 193 193 193 192 193 192 193 193 194 196 197 198 197 196 195 195 194 194 194 195 195 195 195 196 197 198 199 198 198 198 197 196 194 194 195 197 199 202 207 212 216 221 225 230 234 238 242 246 251 256 262 267 272 277 279 281 281 281 281 281 281
191 192 192 191 192 192 193 194 195 196 196 196 196 196 197 198 200 201 202 202 201 200 200 200 200 201 201 200 199 197 195 195 195 197 198 198 198 197 197 197 197 197 198 199 202 205 210 215 218 223 228 233 238 242 246 250 255 260 264 268 272 274 276 277 277 276 276 277 277
194 194 194 193 193 194 196 197 198 198 198 198 199 199 200 200 201 201 201 200 200 199 198 198 199 200 199 198 197 195 194 192 192 194 196 197 197 197 198 200 201 201 202 203 206 210 215 219 222 225 230 235 240 244 247 251 255 259 263 267 270 271 272 272 272 272 272 273 273
195 195 194 194 194 195 197 198 198 198 199 199 199 199 199 198 198 197 196 196 196 195 195 194 194 194 194 192 192 193 193 192 192 193 194 195 196 198 200 203 205 205 206 207 210 214 218 223 226 230 234 238 242 245 248 251 255 258 262 265 268 269 271 271 271 272 272 273 273
195 195 194 193 194 195 196 197 197 197 197 197 196 195 195 195 195 194 193 192 191 191 191 191 190 190 189 189 190 191 192 193 194 195 195 195 196 199 202 206 208 209 209 210 212 215 220 225 230 235 239 241 244 247 250 253 256 259 261 264 266 267 269 271 272 274 275 275 275
193 192 192 193 193 194 195 196 196 195 195 194 193 193 192 192 192 192 191 189 189 188 189 189 189 188 189 190 190 191 192 193 195 197 198 198 199 201 204 208 211 213 213 213 215 218 222 229 235 241 245 246 248 250 253 256 258 260 261 263 265 267 268 270 273 275 276 276 275
190 190 190 191 191 192 194 194 193 193 193 193 192 191 191 191 190 189 188 187 187 187 187 188 189 189 190 190 191 192 193 194 195 197 200 201 203 205 208 211 214 216 217 218 220 224 229 236 243 248 252 255 256 256 258 259 261 262 263 265 267 268 269 271 273 274 275 275 274
189 189 189 189 190 191 192 192 192 192 193 192 192 191 190 189 189 188 187 186 186 186 186 187 189 190 190 191 192 193 194 195 197 198 200 203 205 209 211 214 218 220 222 224 228 232 239 245 249 252 255 259 262 263 263 263 264 265 266 267 269 269 270 271 272 273 273 273 273
188 188 188 188 189 189 190 191 192 192 192 191 190 189 188 188 187 187 186 185 186 187 188 189 189 190 191 192 193 194 195 196 198 200 201 204 207 210 213 217 221 224 227 230 234 240 246 251 253 252 251 253 258 263 265 266 266 266 267 268 269 269 269 270 270 271 271 271 271
187 187 187 188 188 189 190 191 192 192 191 190 189 188 187 187 187 187 186 186 187 188 190 190 190 191 192 194 194 195 196 198 200 201 203 206 209 212 216 220 225 228 232 235 241 247 253 257 257 254 251 249 251 256 260 263 264 265 266 267 268 269 269 269 269 269 268 268 268
187 187 187 188 188 189 191 191 190 190 190 189 188 188 188 188 188 188 187 187 187 187 188 189 190 192 193 194 195 197 199 200 201 203 205 208 211 215 220 225 230 233 237 241 248 254 258 261 260 258 254 250 248 250 255 258 260 262 264 266 267 268 269 268 268 268 267 266 266
186 187 188 188 188 189 190 189 189 189 189 189 188 188 188 188 188 187 187 187 187 187 188 190 191 192 193 194 196 199 201 202 204 206 207 210 214 219 225 229 234 237 241 246 252 257 261 263 263 261 258 254 250 251 253 255 257 259 262 264 266 267 268 268 268 267 267 267 266
186 187 188 189 189 189 189 189 188 188 188 188 188 188 188 187 186 185 186 187 188 189 190 192 194 195 196 198 199 200 202 204 205 207 209 212 216 222 228 233 235 238 243 248 254 259 263 265 265 264 261 257 254 253 254 255 256 258 260 262 265 266 267 267 267 267 267 267 267
187 187 188 189 190 190 189 188 187 187 187 187 188 188 189 187 187 186 186 187 189 190 191 193 195 196 197 199 201 203 204 205 206 208 210 213 218 224 230 233 236 239 244 250 256 261 265 267 268 267 265 261 258 256 256 257 257 259 260 262 264 265 266 266 266 266 266 267 267
188 188 188 189 190 190 189 187 186 186 186 187 187 188 188 188 188 187 187 188 188 189 190 192 194 195 196 199 201 204 206 207 207 208 211 214 219 225 230 234 238 241 246 251 257 262 267 270 270 270 267 263 261 260 260 259 259 260 261 263 264 265 266 267 267 267 267 268 267
190 190 189 190 190 190 189 187 186 185 186 187 188 189 188 188 187 187 187 187 187 189 191 193 194 196 198 200 203 205 207 209 210 211 213 216 220 225 230 236 240 244 248 253 259 265 269 272 273 271 268 265 263 263 262 262 261 262 262 263 265 266 267 268 268 268 269 269 269
192 191 191 190 190 190 190 188 187 186 186 188 189 189 189 188 186 186 186 187 188 189 191 193 195 198 201 203 205 206 208 210 212 214 217 220 224 229 234 240 245 249 253 258 263 268 272 275 276 273 270 267 266 265 265 264 263 263 263 264 266 267 268 269 269 269 269 270 269
193 193 192 192 191 191 190 189 188 187 188 188 188 188 188 187 186 185 187 189 190 191 193 194 197 199 202 203 205 207 209 212 215 218 221 225 229 234 239 245 250 255 259 263 268 272 276 278 278 276 273 269 268 267 267 266 265 264 264 265 266 268 269 269 269 270 270 270 270
194 193 193 193 193 192 191 189 189 189 189 188 187 187 186 185 185 185 187 189 192 194 195 196 198 199 201 203 205 207 210 214 217 221 224 229 234 238 244 249 255 260 264 268 272 275 278 280 280 279 276 273 271 269 268 267 265 265 265 265 266 267 269 270 270 271 271 271 271
194 193 194 195 194 193 191 189 188 188 188 188 187 186 186 184 184 184 186 188 191 194 196 197 198 199 201 204 207 209 212 216 219 223 227 232 237 242 247 253 259 264 268 272 274 277 279 281 281 280 278 276 274 271 269 268 266 265 265 266 267 268 270 272 272 272 272 272 273
Height
777 778 779 779 780 781 782 783 785 786 787 788 789 790 792 793 795 796 798 799 801 802 804 806 807 809 810 811 813 814 815 817 818 820 821 822 823 824 825 826 827 827 828 829 829 830 830 830 831 831 831 831 832 832 832 832 833 833 833 834 834 834 835 835 835 836 836 836 836
776 777 778 778 779 780 781 783 784 785 786 787 788 789 790 792 794 795 797 798 800 801 803 804 806 808 809 810 811 813 814 816 817 818 820 821 822 823 824 825 826 826 827 828 828 829 829 829 830 830 830 831 831 831 831 832 832 832 832 833 833 834 834 834 835 835 835 836 836
775 776 776 777 778 780 781 782 783 784 785 786 787 788 790 791 793 794 796 797 799 800 801 803 805 806 808 809 811 812 813 814 816 817 818 820 821 822 823 824 825 825 826 826 827 827 828 828 829 829 829 830 830 831 831 831 831 831 831 832 832 833 833 834 834 834 835 835 835
774 774 775 776 777 778 779 781 782 783 784 786 787 788 789 791 792 793 795 796 798 799 801 802 803 805 807 808 810 811 812 813 815 816 817 818 820 821 822 823 823 824 825 826 826 826 827 827 828 828 829 829 829 830 830 830 830 830 831 831 831 832 832 833 833 833 834 834 834
772 773 774 775 776 777 778 780 781 782 783 785 786 787 789 790 791 793 794 796 797 798 799 801 802 804 806 807 809 810 811 812 814 815 816 817 818 820 821 822 822 823 824 824 825 825 826 826 826 827 828 828 828 829 829 829 829 830 830 830 831 831 832 832 832 833 833 833 833
771 772 773 774 775 777 778 779 781 781 783 784 785 786 788 789 791 792 793 794 796 797 798 800 801 803 805 806 808 809 810 811 812 813 815 816 817 818 820 821 821 822 822 823 823 824 824 825 826 826 826 827 828 828 828 828 829 829 829 830 830 831 831 831 831 832 832 832 832
770 771 772 773 775 776 777 779 780 781 782 783 784 785 786 788 789 791 792 793 795 796 797 799 800 802 803 805 806 807 809 810 811 812 813 815 816 817 818 819 820 821 821 821 822 823 823 824 824 825 826 826 827 827 827 828 828 828 828 829 829 830 830 831 831 831 831 832 832
769 770 771 773 774 775 776 778 779 781 781 782 783 784 785 786 788 789 791 792 793 795 796 797 799 800 801 803 805 806 807 808 810 811 812 814 815 816 817 818 819 819 820 820 821 821 822 822 823 824 824 825 826 826 826 827 827 827 828 828 829 829 829 830 830 831 831 831 831
769 770 771 772 773 775 776 777 778 779 780 781 782 783 785 786 787 788 790 791 792 793 795 796 797 799 800 802 803 804 806 807 808 810 811 812 814 815 816 816 817 818 819 819 820 820 821 821 822 822 823 824 825 825 826 826 826 826 827 827 828 828 829 829 829 830 830 830 830
768 770 771 772 773 774 775 776 777 778 779 781 781 783 784 785 786 787 788 789 791 792 793 795 796 798 799 801 802 803 805 806 807 809 810 811 813 814 814 815 816 816 817 818 819 819 819 820 821 821 822 823 824 824 824 825 825 826 826 826 827 827 828 828 829 829 829 829 829
768 769 770 771 772 773 774 776 777 778 779 780 781 782 783 784 786 786 787 788 790 791 792 794 795 797 798 800 801 802 804 805 806 808 809 810 811 812 813 814 815 815 816 817 817 818 818 819 820 821 821 822 823 823 823 824 824 825 825 826 826 826 827 827 828 828 828 828 828
768 769 770 771 771 772 773 775 776 777 778 779 780 781 782 784 785 786 787 788 789 791 792 793 794 796 797 799 800 801 803 804 805 806 808 809 810 811 812 813 814 814 815 816 816 816 817 818 819 820 821 821 821 822 822 823 823 824 824 825 825 826 826 826 827 827 827 827 827
768 769 769 770 771 772 773 774 775 776 777 778 779 780 781 783 784 785 786 787 789 790 791 792 794 795 796 797 799 800 801 802 804 805 807 808 809 810 811 812 813 814 814 815 815 816 816 817 818 819 820 820 821 821 821 822 822 823 823 824 824 825 825 826 826 826 826 826 826
767 768 769 770 771 771 772 773 774 775 776 777 778 780 781 782 783 784 786 786 788 789 790 791 792 794 795 796 797 798 800 801 802 804 806 807 808 809 810 811 812 813 814 814 815 815 816 817 818 818 819 819 819 820 820 821 821 822 822 823 823 824 824 825 825 825 825 825 825
766 767 768 769 770 771 772 773 774 775 776 777 778 779 780 781 782 783 785 786 786 787 788 790 791 792 794 795 796 797 798 800 801 802 804 805 806 808 809 810 811 812 813 814 814 815 815 816 817 818 818 818 818 819 819 820 821 821 821 822 822 823 823 824 824 824 824 824 824
766 767 768 769 770 771 772 773 774 775 776 777 778 779 780 781 782 783 784 785 786 786 787 789 790 792 793 795 796 796 797 799 800 801 802 803 805 806 808 809 810 811 812 813 814 814 815 816 816 817 817 817 817 818 818 819 820 820 821 821 821 822 822 822 823 823 823 823 822
765 766 767 768 770 771 771 773 774 775 776 776 777 778 779 780 781 782 783 784 785 786 787 788 790 791 793 794 795 796 797 798 799 800 801 802 804 806 807 808 810 811 811 812 813 814 815 815 816 816 816 816 817 817 818 818 819 819 820 820 821 821 821 821 821 821 821 821 821
764 765 766 767 769 770 771 772 773 774 775 776 777 778 779 780 781 782 783 783 784 785 786 788 789 791 792 793 795 796 797 798 799 800 801 803 804 805 806 808 809 810 811 812 813 813 814 815 815 816 816 816 816 816 817 817 818 818 819 819 820 820 820 820 820 820 820 820 820
762 764 765 766 767 768 769 770 771 772 774 775 776 777 778 779 780 781 782 783 784 785 786 788 789 791 792 793 794 796 797 798 800 801 802 803 805 806 806 807 808 809 810 811 812 813 814 814 815 815 815 815 816 816 816 817 817 818 818 818 818 819 819 819 819 819 819 819 818
761 762 763 765 766 767 768 770 771 771 772 773 775 776 777 778 779 780 781 782 784 785 786 788 789 791 793 794 796 797 799 800 801 802 803 804 804 805 806 807 808 809 809 810 811 812 813 814 814 814 814 814 815 815 816 816 816 816 817 817 817 817 817 817 817 817 817 817 817
761 762 763 765 766 767 768 769 770 771 772 773 774 775 776 777 778 780 781 782 784 786 787 788 790 792 794 796 797 798 799 800 801 801 802 803 804 804 805 806 807 808 808 809 810 811 812 813 813 813 813 814 814 814 815 815 815 815 816 816 816 816 816 816 816 816 816 816 816
761 762 763 765 766 767 768 769 770 771 771 772 773 774 776 777 778 779 781 782 783 785 786 787 789 791 793 795 796 797 798 799 800 801 801 802 803 804 804 805 806 807 808 808 809 810 811 811 812 812 812 812 813 813 813 814 814 814 814 814 814 814 814 814 814 814 814 814 814
761 762 763 764 766 766 767 768 769 770 771 772 773 774 775 776 777 779 780 781 782 783 784 786 787 789 791 792 794 795 796 797 798 799 800 801 802 803 804 805 805 806 807 807 808 809 810 811 811 811 811 811 811 812 812 812 813 813 813 813 813 813 813 813 813 813 813 813 812
760 761 762 763 764 765 766 767 768 769 770 771 771 773 774 775 776 778 779 780 781 782 784 785 786 788 789 791 792 793 794 795 796 798 799 800 801 802 803 804 805 805 806 807 808 808 809 809 810 810 810 810 811 811 811 811 811 812 812 812 812 812 812 812 811 811 811 811 811
759 760 761 762 763 764 765 766 766 767 768 769 771 772 773 774 776 777 778 779 781 782 783 785 786 787 788 790 791 792 793 794 795 796 798 799 801 801 802 803 804 805 805 806 807 807 808 808 809 809 809 809 810 810 810 811 811 811 811 811 811 811 810 810 810 810 810 810 809
758 760 761 761 762 763 764 765 766 767 768 769 770 771 772 774 775 776 777 779 781 782 783 784 785 786 788 789 790 791 793 794 795 796 797 798 800 801 801 802 803 803 804 805 806 806 807 807 807 808 808 808 809 809 809 809 809 810 810 809 809 809 809 808 808 808 808 808 808
758 759 760 761 762 763 763 764 766 766 767 769 770 771 772 773 774 776 777 778 780 781 782 783 785 786 787 788 790 791 792 793 795 796 796 797 798 799 800 801 802 802 803 804 805 806 806 806 806 807 807 807 807 808 808 808 808 808 808 808 808 807 807 806 806 806 806 806 806
757 758 760 761 761 762 763 764 765 766 767 768 769 770 771 772 774 775 776 778 779 780 781 782 784 785 786 787 789 790 791 792 794 795 796 797 798 799 799 800 801 802 802 803 804 804 805 805 805 806 806 806 806 806 806 807 807 807 806 806 806 806 805 805 805 804 804 804 804
757 758 759 760 761 762 763 764 765 766 766 768 769 770 771 772 773 774 776 777 778 779 780 781 783 784 786 787 788 789 791 792 793 794 795 796 797 798 799 799 800 801 802 802 803 803 804 804 804 805 805 805 805 805 805 805 805 805 805 805 804 804 803 803 803 803 803 802 802
757 758 759 760 761 762 763 764 764 765 766 767 769 770 771 771 772 773 775 776 777 778 779 780 782 783 785 786 787 789 790 791 792 793 794 795 796 797 798 799 799 800 801 801 802 802 803 803 803 804 804 804 804 804 804 804 804 803 803 803 802 802 802 802 801 801 801 801 801
757 758 759 760 761 762 763 763 764 765 766 767 768 769 770 771 772 773 774 775 776 777 779 780 781 782 784 785 786 788 789 790 791 792 793 794 795 796 797 798 799 799 800 801 801 801 802 802 803 803 803 803 803 803 802 802 802 802 802 801 801 801 801 801 800 800 800 800 800
756 758 759 760 761 762 763 764 765 765 766 767 768 769 770 770 771 772 773 774 776 777 778 780 781 782 783 785 786 787 788 789 791 791 793 794 795 796 796 797 798 799 799 800 800 801 801 801 801 802 802 802 802 802 801 801 801 801 800 800 800 799 799 799 799 799 798 799 799
756 757 759 760 761 761 763 763 764 765 766 767 767 768 769 770 771 772 774 775 776 776 778 779 780 781 782 784 785 786 787 789 790 791 792 793 794 795 796 796 797 797 798 799 799 800 800 800 801 801 801 801 801 801 801 800 800 800 799 798 798 798 797 797 797 797 797 797 797
756 757 758 760 761 761 762 763 764 765 766 767 767 768 769 770 771 772 773 774 775 776 777 778 779 781 782 783 784 785 787 788 789 791 791 793 794 795 795 796 796 796 797 798 798 799 799 799 799 800 800 800 800 800 799 799 799 798 797 797 796 796 796 796 796 796 796 796 796
756 757 758 759 760 761 762 763 764 765 766 766 767 768 769 770 771 772 773 774 775 776 777 778 779 781 782 783 784 785 786 787 789 790 791 792 793 794 794 794 795 796 796 797 797 798 798 798 798 798 798 799 798 798 798 797 797 796 796 795 795 794 794 794 794 794 794 794 794
756 757 758 759 760 761 762 763 764 765 765 766 767 768 769 770 771 772 773 774 775 776 777 778 779 781 781 782 783 785 786 787 788 789 790 791 792 792 793 793 794 795 795 796 796 796 797 797 797 797 797 797 797 796 796 796 795 795 794 794 793 792 792 792 792 792 792 792 792
756 757 758 759 760 761 761 762 763 764 765 766 767 768 769 770 771 772 773 774 775 776 776 777 779 780 781 781 782 784 785 786 787 788 789 790 791 791 792 792 793 793 794 795 795 795 796 796 796 796 796 796 795 795 795 794 794 793 792 792 791 791 790 790 790 790 790 790 790
756 756 757 758 759 760 761 762 763 764 765 766 766 767 768 770 771 772 773 773 774 775 776 777 778 778 779 781 781 783 784 785 786 787 788 789 789 790 791 791 792 792 793 793 794 794 794 794 794 794 794 794 794 793 793 792 792 791 791 790 789 788 788 788 788 788 788 788 787
755 756 757 758 759 760 761 761 762 763 764 765 766 767 768 769 771 771 772 773 774 774 775 776 777 778 779 780 781 782 784 785 786 786 787 788 788 789 789 790 791 791 791 792 792 792 792 793 793 793 793 793 792 792 791 791 790 790 789 788 787 786 786 786 786 786 786 786 786
755 756 757 757 758 759 760 761 762 763 764 765 766 767 768 769 770 771 772 773 774 774 775 776 776 777 779 780 781 782 783 784 785 785 786 786 787 788 788 789 789 790 790 791 791 791 791 791 791 791 791 791 791 790 790 789 789 788 787 786 786 785 785 785 785 785 784 784 784
755 756 756 757 758 759 760 761 761 762 764 765 766 766 768 769 770 771 772 773 774 774 775 776 776 777 778 779 780 781 782 783 784 784 785 786 786 787 787 788 788 788 789 789 790 790 790 790 790 790 790 790 789 789 788 788 787 786 785 784 784 783 783 783 783 782 782 782 782